Ljubljana Jože Pučnik Airport

Jump to: basic info | weather | frequencies | runways | comments

Related pages: nearby airports | nearby navaids | notams | map

Basic information (top)

Codes: LJU LJLJ
Location: lon 46.223701, lat 14.457600, elev 1,273 ft / 388 m msl
Status: large_airport
Scheduled airline service: yes
Links: Wikipedia Mobile

Weather (top)

Current conditions (rec'd 2015/03/05 11:30Z):

LJLJ 051130Z 33004KT 9999 FEW060 SCT130 09/M09 Q1022 WS ALL RWY NOSIG

Airport forecast (rec'd 2015/03/05 09:06Z):

TAF LJLJ 050800Z 0509/0609 12005KT 9999 SCT055 BKN110 
      TEMPO 0509/0609 11010G20KT PROB30 
      TEMPO 0509/0609 33010G25KT

Frequencies (top)

Verify before use: may be inaccurate or out of date.

A/D: 135.275 MHz (APP)
ATIS: 128.175 MHz (also on VOR DOL 112.700)
GND: 121.625 MHz ()
HANDLING & GA: 131.4 MHz ()
TWR: 118 MHz (TWR)

Runways (top)

13/31: 10,827 x 148 ft (3,300 x 45 m) — paved — lighted

Latest comments (top)

I wish more were like that: It's small, it's cosy, it's convenient. ... [read]

an experience: I too managed to land here from ... [read]

Small airport without hassles: Managed to land here in a snowstorm in ... [read]

More... (top)

See also NOTAMs and nearby airports and navaids, or visit the Ljubljana Jože Pučnik Airport page at the main OurAirports website..